GFSMA_2pvu_pres_237.txt.gz
Presure
170 164 142 168 169 159 161 179 174 163 180 167 176 161 161 154 161 147 152 186 198 187 193 197 172 167 187 185 170 177 181 179 192 178 178 168 173 179 185 182 184 186 177
171 165 172 155 169 157 175 177 149 178 174 171 176 170 171 169 176 184 185 158 184 193 166 196 157 191 194 193 194 188 181 182 166 162 162 189 175 173 178 176 177 173 177
168 173 173 174 171 159 162 155 142 155 150 170 150 186 168 189 164 159 200 176 180 159 166 156 177 183 189 188 170 184 201 217 180 165 181 155 170 170 164 173 178 181 180
163 159 178 173 165 166 157 165 162 161 177 153 147 180 150 162 152 148 146 169 158 169 219 166 188 147 134 205 211 172 181 173 201 192 170 183 190 189 173 178 178 175 173
161 172 169 177 163 172 161 162 145 172 175 162 160 153 165 154 173 182 171 183 126 154 160 157 183 195 213 207 195 210 214 212 210 194 197 189 174 159 165 183 170 169 162
166 157 177 165 164 169 144 150 166 172 149 141 163 150 181 176 171 162 128 161 147 176 167 170 196 195 201 196 210 173 189 195 173 216 165 204 191 191 191 183 174 199 159
162 164 151 157 153 142 152 174 178 167 143 163 143 172 173 159 157 185 170 212 178 183 150 195 176 185 179 193 175 172 219 155 202 176 219 153 219 206 174 166 159 173 194
176 147 175 155 143 163 167 165 163 173 188 159 178 164 143 200 179 179 197 162 187 151 193 170 207 206 221 181 190 189 203 200 210 211 189 175 176 201 192 167 174 203 144
166 154 166 167 151 168 172 169 164 165 181 172 161 152 153 155 197 193 169 179 165 200 184 184 211 206 198 210 152 214 191 215 204 179 204 212 199 173 196 206 196 194 205
157 161 142 144 171 182 166 150 158 176 151 193 203 149 154 197 199 182 161 209 166 213 181 253 239 237 228 225 221 163 160 155 213 144 168 160 169 193 223 222 215 199 181
182 162 171 162 159 181 140 148 175 185 183 162 187 160 180 188 202 200 191 182 221 232 250 248 236 237 230 237 254 245 249 216 220 221 225 223 212 188 197 150 194 215 173
164 165 175 167 156 154 149 173 150 174 189 159 134 200 205 183 175 193 170 232 207 271 260 269 260 253 254 255 249 257 258 259 238 195 174 168 202 185 207 196 200 203 202
181 145 170 160 169 163 134 182 194 163 154 148 205 195 179 211 207 214 237 257 262 287 285 278 287 287 303 322 310 299 257 267 240 240 226 186 214 251 238 185 195 217 205
161 184 171 167 149 180 161 192 191 195 179 200 197 163 184 199 185 225 249 298 298 310 317 347 411 417 420 443 411 392 402 360 297 275 259 231 227 219 232 176 207 191 207
170 144 171 175 143 165 190 179 195 193 159 203 179 192 198 180 254 239 291 312 332 372 425 453 450 418 393 383 380 301 385 370 340 317 295 244 249 239 165 244 179 169 213
168 168 168 147 173 189 172 162 153 193 195 173 183 201 221 250 260 264 304 335 472 439 430 415 424 439 421 396 254 308 397 373 359 324 309 286 279 231 261 244 247 199 222
158 172 182 175 151 192 191 172 192 205 196 200 210 176 232 262 291 313 326 456 437 426 411 393 387 400 414 413 381 361 357 418 368 328 167 262 314 170 283 240 260 238 244
158 152 170 165 190 185 197 177 183 173 188 194 216 206 256 294 315 331 387 425 428 424 416 410 411 394 397 392 391 363 350 388 375 315 302 263 289 274 267 236 226 252 251
167 189 177 191 200 205 181 179 188 207 218 197 235 238 310 306 324 368 394 405 392 392 385 390 411 395 394 386 400 374 343 376 377 315 288 276 272 254 248 253 233 237 250
186 171 176 195 213 170 177 196 202 202 201 227 237 256 317 332 339 385 380 378 374 369 357 369 395 386 374 373 390 364 340 370 353 320 293 300 297 251 250 241 241 243 236
185 197 195 216 161 194 203 201 183 215 186 231 246 283 329 321 389 373 380 372 359 353 348 350 358 378 364 365 375 378 373 346 353 340 298 293 282 275 264 244 228 233 233
201 194 190 185 188 187 210 188 212 209 226 244 241 295 304 394 371 363 371 364 356 351 351 352 347 358 365 361 370 390 352 331 351 328 330 290 292 285 263 256 238 243 228
192 190 218 208 215 208 193 205 216 217 235 258 316 316 375 385 367 357 360 358 348 345 352 371 365 350 360 368 364 387 367 338 330 351 333 305 298 281 266 252 250 247 237
186 207 203 200 212 211 205 218 223 221 265 291 320 317 398 383 320 356 363 358 342 344 360 381 376 362 358 370 371 375 365 330 325 330 352 359 306 286 280 271 257 248 248
204 206 190 215 205 213 219 216 214 240 260 308 316 407 394 327 354 353 360 356 345 361 379 394 385 369 358 371 362 377 353 348 343 325 329 337 357 310 291 281 277 262 255
214 185 214 211 192 224 214 218 228 252 305 317 401 394 326 338 364 351 369 350 363 386 463 425 385 375 367 377 366 367 352 368 345 331 330 336 334 347 320 247 289 273 269

GFSMA_2pvu_pres_240.txt.gz
Presure
170 169 171 165 146 171 170 179 179 165 182 171 173 168 161 178 168 156 165 159 187 161 192 198 161 190 181 189 197 209 175 186 182 214 176 182 177 184 176 170 177 193 186
156 164 163 165 165 166 172 175 188 153 167 148 165 180 173 181 168 163 166 166 186 155 154 160 193 180 152 211 181 177 191 187 195 186 181 200 182 173 174 175 180 175 173
167 174 172 161 152 168 184 170 161 147 159 145 162 163 164 172 151 141 201 188 138 154 198 159 180 189 197 147 173 174 166 195 212 211 209 201 184 204 181 171 166 160 178
164 163 169 165 159 159 164 178 148 159 161 183 159 169 174 161 152 180 173 176 178 156 166 140 156 189 167 186 156 171 201 176 185 170 222 219 215 181 191 201 162 179 158
176 168 154 162 168 170 177 176 155 181 170 165 173 174 177 155 139 172 145 179 187 192 160 146 187 168 177 136 201 183 210 205 187 166 204 187 210 223 214 166 202 184 189
165 156 160 163 166 158 166 162 142 153 156 170 173 156 163 164 167 181 159 151 141 157 186 157 191 160 158 181 193 154 193 208 205 176 203 174 159 222 190 196 214 185 187
146 167 172 163 161 165 154 170 170 161 173 141 175 161 147 162 177 170 159 146 154 190 190 190 164 180 181 193 186 181 186 154 194 184 200 190 162 215 179 197 165 185 200
160 169 169 167 169 165 156 179 176 163 143 171 169 156 165 177 155 183 150 171 182 183 172 198 199 199 183 206 177 223 154 199 170 184 216 185 167 198 212 190 205 203 191
164 162 159 180 174 174 191 152 169 165 166 155 172 177 162 167 176 174 167 171 178 168 187 186 202 173 184 227 235 207 231 238 228 170 234 140 157 174 189 191 202 207 200
167 172 160 155 175 162 167 153 164 160 142 168 161 152 175 165 164 198 160 176 179 173 173 165 180 183 238 207 240 238 231 243 248 246 250 242 210 216 195 195 176 204 214
177 172 186 146 179 141 155 184 183 148 162 153 152 187 160 151 154 140 192 192 189 195 180 182 242 238 243 258 241 254 242 256 255 244 258 251 238 220 234 151 151 192 138
152 161 173 199 177 151 175 159 143 177 144 164 162 188 143 165 171 180 166 180 186 204 219 221 243 283 292 297 295 332 307 300 288 278 257 260 255 243 230 213 162 156 192
153 179 167 161 155 185 174 170 166 156 155 179 187 186 163 202 178 159 209 184 204 241 239 243 277 307 422 478 471 457 443 437 406 376 324 278 266 183 241 235 214 144 175
174 156 163 178 144 185 187 178 177 147 152 197 188 157 200 200 156 185 180 214 196 258 276 297 329 466 463 452 455 470 442 431 421 435 360 343 292 269 250 241 230 195 176
165 180 169 174 177 184 167 181 191 201 190 171 190 204 199 174 202 185 194 191 248 273 303 346 441 438 442 434 421 418 429 444 415 396 405 406 349 319 275 258 266 230 183
184 172 183 173 179 178 178 165 164 180 174 168 183 199 162 189 192 200 187 244 266 307 318 418 409 413 422 421 414 408 406 424 432 405 380 304 409 346 326 303 269 253 240
176 179 168 180 187 175 169 194 180 178 196 179 211 198 209 204 195 214 232 271 298 316 366 397 361 389 380 388 431 432 398 397 424 409 383 133 356 363 333 311 313 183 260
183 174 179 178 175 179 183 191 184 160 205 182 183 190 192 209 226 236 254 290 311 326 395 349 384 377 373 367 378 414 409 411 403 416 379 147 356 362 343 312 298 328 253
177 188 184 178 185 179 191 185 199 201 195 196 198 211 191 210 229 233 268 305 336 404 357 368 380 374 361 360 361 376 391 402 390 407 383 359 363 371 343 318 289 312 275
170 181 179 178 156 187 186 191 182 196 187 182 181 190 215 201 235 275 302 350 372 384 339 368 361 372 357 349 361 359 379 378 387 399 386 349 352 366 337 307 294 268 258
164 184 178 183 190 179 185 195 201 199 216 211 213 205 220 201 262 295 305 328 398 343 349 367 353 364 347 353 357 368 363 366 373 394 370 345 347 364 320 291 275 254 264
183 181 178 184 193 185 190 202 202 193 214 214 213 219 227 243 262 309 295 409 337 356 348 366 377 357 350 360 366 374 359 371 369 380 376 334 372 350 312 293 270 274 245
182 182 165 194 196 188 204 203 209 189 224 213 203 227 236 250 315 346 372 352 354 351 345 349 372 358 379 383 382 378 361 374 366 379 357 336 359 342 323 289 275 282 253
185 173 185 192 187 193 198 206 200 216 223 228 214 236 237 253 325 317 367 359 354 352 362 372 365 404 472 453 404 380 362 380 365 375 366 332 358 339 310 280 266 273 270
185 199 183 187 191 204 204 209 197 221 223 223 226 235 248 265 332 383 363 365 350 346 351 366 406 456 419 436 391 374 361 378 371 368 359 319 351 329 297 279 267 268 256
191 198 173 194 193 205 210 206 213 226 219 222 235 247 264 310 389 365 369 328 352 362 370 390 431 458 460 425 388 372 365 375 371 363 349 333 341 345 289 289 266 273 255

GFSMA_2pvu_pres_243.txt.gz
Presure
170 163 168 171 165 167 171 166 169 171 168 148 182 144 144 186 191 187 184 176 161 160 170 170 198 152 193 195 160 182 205 171 198 210 178 180 190 169 183 186 199 177 178
157 176 167 164 163 152 170 164 162 175 165 167 204 175 176 147 141 170 142 154 181 134 171 156 185 163 190 165 160 178 192 211 198 180 202 192 164 213 214 220 179 181 188
158 179 154 160 164 169 155 167 164 167 167 154 140 174 154 163 141 155 170 145 125 134 165 169 147 151 160 143 145 144 180 154 187 180 187 162 197 175 193 206 214 183 170
183 158 173 160 161 164 169 169 179 165 166 138 150 164 152 169 176 163 167 175 163 193 179 184 179 162 133 170 134 193 145 177 192 156 176 156 197 184 179 166 202 202 213
181 168 171 177 177 163 159 172 160 169 151 178 175 167 150 151 175 157 163 160 173 142 171 175 128 156 180 174 159 181 157 165 174 167 161 152 168 194 202 200 212 171 209
182 184 170 168 157 171 165 163 168 171 179 177 172 145 158 170 178 169 159 163 175 175 151 178 164 190 193 170 152 182 182 186 176 184 181 189 207 173 173 148 183 204 188
187 175 179 143 165 153 163 170 136 192 166 155 170 181 141 180 149 162 173 176 172 185 146 184 174 182 173 180 191 187 172 188 159 178 192 234 205 181 210 149 201 194 173
182 187 145 155 178 173 166 165 156 164 163 165 162 143 168 162 182 175 161 161 159 151 207 204 188 195 174 173 183 184 180 178 215 175 237 158 202 206 227 202 171 169 183
184 165 172 152 169 165 166 158 171 183 180 160 162 167 143 170 152 147 175 182 162 192 199 184 202 181 183 189 186 199 202 221 204 215 239 244 213 240 184 243 146 201 174
177 186 171 161 176 188 161 184 154 185 158 177 157 183 178 172 180 181 158 167 182 188 193 157 198 194 191 202 194 196 213 253 265 264 265 264 257 252 253 241 173 194 162
186 178 161 167 170 172 163 186 157 177 164 163 154 161 148 158 158 166 158 172 199 184 189 190 208 208 225 205 214 242 264 286 300 389 322 325 300 300 281 277 302 204 193
153 173 159 172 177 168 165 160 155 165 166 177 173 161 182 184 176 166 173 189 194 193 184 177 201 205 185 209 295 297 336 493 494 504 513 452 398 362 357 307 258 223 199
180 177 160 168 180 174 174 188 162 168 183 168 160 184 174 177 167 186 179 200 198 191 207 196 199 192 215 304 337 435 462 440 469 469 461 481 488 408 353 332 311 301 204
168 174 163 178 173 158 184 183 173 157 170 171 184 157 177 158 189 186 178 191 188 196 204 200 199 246 262 367 376 431 410 427 442 452 449 437 454 466 400 339 312 283 278
183 167 152 169 163 157 147 173 174 156 153 180 156 188 159 155 194 196 194 188 209 230 219 198 233 264 307 348 403 401 401 403 409 421 441 422 425 468 168 369 333 313 256
182 179 179 153 175 169 175 179 169 163 169 195 171 172 170 176 188 188 194 203 192 222 242 229 259 301 371 398 376 382 388 390 388 394 437 426 414 436 438 419 349 323 297
182 171 184 173 188 168 172 163 163 179 184 184 177 159 191 193 202 194 211 183 194 237 247 276 295 324 400 367 379 377 376 378 373 384 399 421 410 351 438 311 362 334 308
179 169 147 175 181 173 171 152 177 183 182 181 184 183 180 200 165 204 200 220 196 223 273 313 307 412 370 379 361 372 367 369 363 369 382 405 414 424 424 133 399 357 320
172 176 182 175 158 172 174 175 141 174 162 184 169 170 191 202 210 190 220 220 237 258 276 294 403 377 370 366 357 359 368 365 357 367 382 392 398 412 415 162 403 345 326
182 161 183 181 168 175 154 180 191 181 171 175 167 197 192 203 207 221 223 224 241 290 261 332 386 380 348 350 371 355 369 356 356 367 382 385 387 411 431 357 395 336 327
181 168 163 180 173 170 183 188 182 182 165 167 189 196 184 210 217 228 231 248 263 272 283 392 384 333 356 377 353 370 362 371 378 377 382 380 388 404 345 349 358 344 329
162 187 184 185 159 172 179 174 181 189 170 164 195 203 203 217 231 227 247 247 264 327 369 380 346 345 361 363 376 384 485 477 412 381 383 376 388 391 396 332 336 375 326
190 186 178 179 196 179 171 164 188 189 192 189 207 190 205 228 249 247 243 250 256 339 379 360 329 379 363 373 427 452 440 461 423 389 379 376 390 373 377 368 339 338 364
185 184 186 190 179 182 183 172 189 202 203 188 211 199 209 226 240 251 240 285 327 390 365 336 331 365 374 425 404 479 444 425 399 378 373 374 394 374 359 351 353 365 363
183 171 193 186 184 183 177 166 196 188 187 214 218 226 217 248 247 245 281 353 385 368 346 328 367 373 411 388 402 464 417 398 378 372 377 377 385 350 342 374 352 344 340
186 184 190 169 191 182 177 198 191 191 208 214 226 224 240 260 281 252 264 339 383 358 329 316 375 409 387 385 390 467 408 381 373 369 385 390 362 332 351 348 333 324 333

GFSMA_2pvu_pres_246.txt.gz
Presure
184 158 157 158 171 170 157 152 159 159 165 164 176 173 141 172 157 162 159 177 194 175 178 169 169 148 177 172 161 152 138 188 182 162 171 177 185 206 193 206 201 207 178
191 162 147 172 167 157 148 171 150 168 170 174 171 155 150 168 164 180 160 159 162 161 156 151 164 160 167 147 197 140 175 163 193 186 163 182 180 179 204 192 181 195 168
204 162 156 171 159 156 164 175 173 165 173 163 146 168 143 167 180 143 163 153 155 160 148 158 144 175 179 171 194 141 174 141 208 187 180 175 180 180 194 186 185 192 163
161 166 156 190 164 174 142 171 155 160 172 168 163 167 194 150 161 157 176 166 176 167 153 163 176 136 187 186 164 166 191 175 187 176 193 192 161 184 192 184 195 166 156
183 174 169 178 186 193 156 161 162 174 138 171 169 161 162 179 156 163 166 155 166 165 167 179 176 168 155 151 175 186 179 155 174 187 142 194 165 149 182 182 184 176 139
181 170 201 180 195 188 187 172 152 150 164 173 170 173 157 166 167 168 173 174 168 182 173 172 165 160 179 183 186 184 165 187 209 186 202 203 140 179 192 171 164 157 165
181 200 186 189 190 183 174 177 174 167 164 163 155 152 176 163 150 179 178 149 175 162 172 174 173 172 162 170 167 184 197 194 190 183 208 191 195 181 197 162 206 165 218
191 173 186 191 182 178 175 161 162 159 169 186 166 178 176 181 129 179 157 170 149 172 180 160 146 169 165 176 194 198 191 189 183 184 191 186 208 188 205 217 216 159 192
183 181 190 205 185 169 146 165 181 180 174 170 167 147 152 174 172 153 154 169 170 182 160 172 166 184 183 189 190 185 199 202 205 209 219 218 222 219 228 236 232 257 218
190 146 188 161 180 177 174 153 156 162 178 171 164 151 186 155 169 173 167 163 176 171 149 186 183 174 191 183 182 196 197 193 199 217 248 245 254 252 243 379 373 346 213
179 126 177 188 186 175 179 136 161 134 194 176 153 167 151 171 168 178 174 161 150 165 172 191 198 202 203 208 207 210 226 229 247 250 294 485 480 489 510 449 393 374 357
177 124 177 172 170 174 172 170 158 185 182 178 165 169 161 164 165 152 161 165 136 157 105 182 182 219 210 214 218 238 243 256 274 272 467 403 418 447 469 527 377 414 360
190 174 181 172 182 190 183 171 183 175 161 168 167 169 151 177 177 183 173 145 179 183 190 128 195 192 208 241 247 241 269 257 424 387 397 411 415 431 442 476 497 364 410
173 176 185 182 190 171 179 141 172 169 173 156 172 164 185 176 171 175 163 169 171 189 168 203 106 208 222 230 262 285 270 400 406 389 397 408 400 411 413 465 469 463 359
179 175 178 189 193 136 173 173 163 171 162 177 171 178 175 182 186 179 160 170 216 161 186 82 197 138 234 258 271 272 344 403 389 371 370 393 376 392 393 421 463 437 452
178 182 185 163 167 163 156 164 180 172 168 160 182 153 185 179 179 175 187 191 196 189 209 210 215 234 264 292 269 390 400 384 346 367 374 372 377 382 379 404 444 431 437
180 171 178 171 155 165 182 178 157 153 180 156 176 167 163 168 172 176 187 190 181 201 217 222 231 259 241 262 278 404 374 348 366 367 382 363 376 367 371 391 430 427 435
172 171 180 167 171 173 174 161 176 162 166 191 169 182 185 173 172 188 194 159 182 219 228 248 238 243 249 263 405 377 350 342 375 373 367 371 374 358 366 386 416 416 444
176 181 174 192 166 182 170 178 179 184 191 169 176 180 183 175 192 184 167 193 213 230 234 232 234 246 245 407 381 356 344 378 370 377 376 373 370 360 367 385 407 413 436
161 181 185 170 197 186 185 172 180 175 183 183 187 183 150 186 190 179 182 195 221 227 227 238 238 287 360 386 362 352 381 386 388 398 422 430 416 388 377 385 399 412 420
175 175 158 181 193 181 181 176 185 176 178 173 180 176 179 198 194 170 191 222 224 210 233 252 230 351 394 369 347 353 389 417 426 416 494 451 468 401 379 384 392 412 416
172 189 178 174 184 182 198 182 180 174 181 181 194 182 207 192 190 197 214 230 216 226 233 259 359 403 347 328 340 398 426 400 427 462 440 459 427 394 386 380 393 416 395
179 184 173 178 180 167 184 170 172 177 173 185 194 192 180 201 185 199 214 223 215 218 254 256 400 357 365 342 427 412 392 416 435 443 438 418 397 386 375 379 403 404 380
184 180 173 171 186 187 200 179 166 180 179 194 185 203 211 192 184 203 212 224 234 225 236 348 363 375 306 337 417 388 388 401 457 413 403 387 392 373 379 387 392 383 356
175 183 171 195 163 189 184 187 178 174 187 199 205 189 205 184 203 196 208 229 217 220 283 376 373 350 344 409 381 376 379 392 433 398 386 382 372 378 381 379 353 375 364
176 183 176 187 181 198 178 181 186 197 193 199 173 202 215 196 215 218 203 245 229 218 294 373 325 355 345 384 368 353 363 390 426 392 380 369 375 385 371 361 357 350 342